Location: ?????
(33.6267°N, 35.4675°E)
Time: 14:18:40
(UTC+00:00)

OE (NEXTSAT) - Pass Details

Date: 12 November 2019
Orbit: 433 x 442 km, 46.0° (Epoch: 09 December)

Event Time Altitude Azimuth Distance (km) Brightness Sun altitude
Rises 16:02:23 0° 308° (NW) 2,403 8.7 -17.9°
Reaches altitude 10° 16:04:32 10° 312° (NW) 1,532 7.6 -18.3°
Enters shadow 16:07:54 56° 28° (NNE) 517 4.4 -19.0°
